Theta_e
331 333 334 336 335 335 335 336 336 338 336 332 331 333 334 332 332 333 335 334 333 333 334 331 330 331 330 329 328 327 326 324 325 320 320 320 322 323 323 325 324 325 326
329 330 332 334 335 335 336 338 338 339 337 335 336 335 334 329 329 328 331 331 330 330 330 331 327 329 327 328 329 329 325 322 324 319 318 312 316 319 323 323 323 324 325
330 331 332 334 335 336 337 338 339 339 339 340 337 336 333 331 324 324 323 325 327 326 326 326 326 327 328 324 329 325 326 322 323 325 318 311 309 314 319 322 322 324 324
332 332 332 332 336 336 338 339 339 340 340 341 335 334 321 318 319 322 323 325 327 326 325 325 325 326 324 324 325 329 327 327 321 324 321 322 319 312 310 320 321 323 323
333 332 331 333 336 337 339 339 340 340 339 338 335 326 326 321 322 322 325 327 327 325 324 325 325 324 322 324 326 327 327 325 325 323 321 320 318 319 315 310 313 320 321
333 334 335 332 336 337 336 336 337 337 335 333 332 333 331 328 323 322 322 321 321 321 324 323 323 324 324 323 324 326 327 326 326 323 322 319 316 315 317 313 314 316 318
331 330 330 331 333 333 331 332 331 327 329 329 329 329 331 330 328 325 321 322 319 319 324 324 323 322 323 323 324 324 326 324 323 323 320 321 319 323 321 318 315 314 317
328 329 329 329 330 328 325 327 327 323 323 325 328 328 330 325 323 324 323 321 319 320 324 322 322 322 323 323 324 323 326 322 321 321 322 320 321 323 321 319 317 313 314
325 326 327 327 325 325 325 322 322 323 325 326 327 327 327 326 324 324 323 319 322 319 320 321 320 321 322 322 324 323 322 323 323 318 322 325 322 322 322 322 320 315 310
325 324 326 325 327 327 324 324 324 323 324 324 324 323 324 323 322 322 320 320 320 320 320 319 319 320 321 321 323 323 323 323 320 323 322 323 321 321 322 318 321 320 314
322 323 323 322 321 320 318 321 320 318 320 320 321 321 321 320 319 317 317 317 318 319 318 318 318 318 319 321 319 320 320 321 321 322 321 322 323 321 321 325 322 319 316
321 320 317 315 313 313 316 317 319 318 319 319 319 318 317 317 316 315 315 315 315 317 317 317 317 317 318 319 318 318 321 320 321 321 321 320 320 322 325 321 321 319 324
315 315 314 312 313 316 317 317 318 318 317 317 315 315 315 315 313 313 313 314 314 315 315 314 315 316 318 320 318 319 321 321 322 322 320 319 321 322 319 321 320 325 323
313 312 310 315 316 317 317 317 316 315 315 314 313 312 312 312 312 313 313 313 314 313 312 314 314 316 319 319 315 318 322 322 321 321 321 320 320 321 321 321 321 319 319
311 314 314 316 315 316 315 314 314 314 313 311 310 310 311 312 312 312 312 313 313 311 312 312 313 316 319 315 316 319 320 321 321 320 320 321 320 317 318 321 320 319 317
311 313 313 313 314 314 313 312 312 311 311 310 309 310 310 310 310 310 309 311 311 311 311 312 313 316 319 310 310 314 318 320 320 319 320 321 317 317 314 314 314 313 312
311 311 312 313 313 312 312 311 310 311 310 309 309 309 308 307 309 309 309 309 310 311 312 312 314 316 316 308 306 309 319 321 320 321 321 321 319 318 318 314 313 314 314
310 312 313 313 313 312 311 311 311 310 309 309 309 308 307 307 308 308 307 309 310 310 311 313 315 315 316 307 305 306 320 322 322 321 321 321 319 318 317 314 315 317 320
313 313 313 312 312 312 311 311 310 310 309 309 308 308 309 308 306 306 306 308 309 309 311 313 312 314 315 305 304 308 319 320 321 320 320 317 319 306 307 313 313 317 320
314 313 312 312 312 312 312 311 311 310 309 308 309 309 310 308 306 308 307 308 309 309 311 314 314 309 310 304 303 307 319 320 319 322 322 308 316 304 306 313 313 317 321
312 312 312 312 313 313 313 311 311 310 311 311 311 309 310 309 306 308 307 307 309 311 313 313 314 312 308 307 303 301 321 316 315 315 318 316 302 300 301 302 314 317 322
311 311 311 312 313 313 313 312 312 313 313 312 312 311 309 307 305 306 307 310 311 311 311 310 309 310 308 304 304 299 303 311 317 315 318 315 300 299 300 306 300 302 311
311 311 311 312 313 314 313 312 313 314 313 312 312 310 309 307 307 306 306 306 309 309 307 306 305 308 306 307 301 299 299 302 315 317 304 298 297 298 302 299 299 298 316
311 311 311 311 311 313 314 314 315 315 313 312 312 310 309 305 307 306 306 305 305 305 303 306 306 307 305 305 309 312 311 305 313 308 312 309 305 301 310 308 308 315 319
313 312 311 311 312 313 313 315 315 315 312 312 312 310 308 307 307 307 307 306 307 302 305 305 303 302 303 303 298 298 310 313 311 315 316 316 315 314 314 314 314 314 315
314 313 313 313 312 312 312 313 315 314 312 312 309 308 307 307 306 306 307 298 298 296 294 293 296 301 297 294 293 297 295 295 297 313 312 313 314 312 313 313 313 314 311
Wind_Speed
11 11 11 11 11 11 11 11 11 11 8 6 6 7 6 6 6 3 5 7 7 9 9 9 9 8 9 11 9 9 11 9 8 8 10 9 9 7 8 6 6 8 7
13 13 11 12 12 13 13 12 11 8 7 6 6 5 5 5 5 5 5 5 6 7 7 8 7 9 10 12 13 11 10 9 9 8 10 10 6 7 5 7 5 7 5
15 14 12 12 12 13 12 10 9 8 9 9 5 6 5 6 6 1 4 4 5 7 7 8 8 10 10 11 13 10 11 10 10 6 6 8 7 3 4 6 8 5 8
14 12 13 11 14 12 9 10 10 10 9 9 5 5 7 7 5 5 4 6 5 7 8 7 9 10 10 12 12 10 12 10 10 7 8 9 9 10 9 2 5 8 9
14 14 12 13 11 11 11 9 10 8 7 7 6 6 7 6 5 6 5 6 6 6 8 8 10 10 10 11 12 13 11 9 9 9 9 8 7 9 9 11 7 4 8
11 9 5 7 12 8 9 9 9 9 8 8 8 9 9 9 9 9 9 9 7 7 7 9 11 11 11 12 10 12 14 11 10 8 9 9 6 7 6 8 10 10 9
7 7 7 10 10 12 9 8 9 6 6 8 9 8 8 9 10 10 9 8 10 9 9 10 12 10 12 12 12 11 13 11 10 10 7 9 9 5 6 7 9 11 9
6 7 8 8 10 9 5 7 9 5 6 5 6 7 6 8 7 9 7 9 10 10 11 12 12 13 13 12 12 11 9 7 7 9 10 9 9 8 8 8 8 10 10
6 6 7 6 7 2 3 4 5 7 6 7 6 7 7 7 8 8 8 9 11 10 14 13 13 14 14 14 13 9 11 12 12 11 12 11 11 8 9 9 9 10 9
6 6 4 4 4 7 8 6 6 6 7 8 7 6 6 6 7 8 10 13 13 13 13 13 13 14 14 15 13 11 13 14 8 8 12 12 11 8 9 8 10 9 8
4 5 6 7 5 5 4 7 5 5 6 6 6 7 8 9 10 10 12 13 13 13 14 14 13 15 14 13 13 11 13 15 13 14 12 14 12 9 8 8 8 8 7
4 7 7 7 7 8 8 4 5 6 6 7 7 9 10 11 11 12 12 13 14 13 13 13 14 15 13 12 13 14 14 15 16 15 14 13 8 12 10 9 10 8 7
7 8 8 6 3 2 5 6 5 7 8 9 11 11 11 12 13 13 13 13 13 13 14 12 14 15 14 11 8 13 14 15 13 12 11 10 9 8 8 8 9 6 5
7 6 4 3 5 6 6 7 7 8 10 11 12 12 12 12 12 12 13 13 13 12 12 13 14 14 13 10 8 12 13 11 9 9 9 8 8 8 6 6 4 3 3
1 2 5 4 5 6 6 7 8 9 10 11 11 10 11 11 12 12 12 11 12 12 14 14 15 15 10 6 9 10 10 8 7 8 6 7 4 9 6 3 4 5 5
4 5 4 5 7 6 7 7 9 9 9 10 10 10 11 13 11 13 13 13 12 14 14 14 15 15 7 6 7 10 7 8 8 7 7 5 6 7 5 2 5 8 8
5 5 6 7 7 7 5 8 8 8 8 9 10 11 11 10 9 11 14 14 13 13 14 13 13 13 8 6 7 6 10 6 6 6 6 7 6 6 3 6 8 6 5
5 5 7 6 5 6 7 7 8 8 9 10 11 12 13 13 13 14 11 14 13 12 11 11 12 10 6 10 8 5 9 8 6 6 7 5 7 5 6 6 6 3 4
5 6 7 6 5 6 6 7 8 9 9 11 11 13 13 15 13 15 12 13 13 13 11 10 9 8 8 13 11 7 7 6 6 6 6 7 10 8 9 7 8 3 7
5 6 7 6 5 6 6 8 9 10 11 12 12 12 14 14 13 12 13 13 13 12 10 9 5 5 9 10 12 8 7 5 5 5 8 5 12 11 6 5 6 1 9
6 6 6 6 7 7 7 9 10 11 12 11 11 12 12 14 11 11 12 12 12 11 8 8 8 9 10 12 9 6 7 5 6 7 9 8 12 9 6 7 3 3 3
6 6 6 6 7 8 8 10 12 12 12 13 10 12 11 10 10 12 10 12 11 10 8 8 8 7 9 12 6 4 6 6 5 5 7 8 9 9 9 8 1 1 1
6 7 7 8 7 7 8 10 11 12 12 12 10 9 10 10 10 9 8 8 8 9 10 9 7 7 5 7 4 2 2 2 4 3 11 13 9 10 6 5 4 6 5
6 6 8 9 10 9 9 10 10 10 10 11 10 8 8 6 8 9 7 9 9 9 8 8 8 7 5 5 6 3 3 2 6 9 7 7 7 5 9 6 6 6 0
8 7 8 9 11 10 10 9 10 8 9 9 8 8 6 5 9 6 6 7 6 3 7 7 6 6 6 4 7 6 1 3 3 5 8 8 8 7 7 6 4 4 5
8 9 10 10 10 10 9 9 8 6 8 9 7 6 6 5 6 6 6 8 3 4 4 5 4 4 7 7 7 6 6 7 7 8 5 5 3 6 3 6 6 5 3
Wind_Direction
207 196 199 202 214 218 215 220 225 234 235 241 253 250 244 278 269 270 261 287 295 290 280 275 273 264 264 277 277 250 246 265 271 263 270 277 274 257 264 249 254 241 233
209 203 202 207 217 222 221 221 225 228 222 228 243 277 299 300 330 311 321 308 312 305 296 299 302 289 284 269 257 260 268 260 268 271 290 279 260 214 215 237 247 239 222
210 201 202 214 217 218 215 217 214 215 216 234 214 228 243 232 235 293 320 16 295 301 303 298 296 293 279 274 269 260 250 260 283 234 271 282 270 1 274 202 245 241 241
222 215 201 197 215 211 205 201 198 198 204 204 223 251 292 299 335 283 319 306 272 299 306 303 302 295 291 287 269 265 254 256 261 271 241 260 293 295 284 218 215 223 234
222 208 194 203 228 190 187 191 199 188 191 203 244 236 241 282 267 293 283 274 258 269 304 313 309 298 287 296 282 268 249 249 250 257 263 257 247 246 251 276 282 248 255
211 224 187 121 213 170 179 181 186 186 190 203 217 241 263 274 292 307 312 289 314 304 304 308 302 296 293 288 285 280 262 248 242 254 266 256 241 248 236 248 266 274 271
216 220 171 191 163 162 159 173 183 200 209 223 238 254 266 281 280 284 297 317 289 305 308 320 299 295 294 292 290 280 267 249 238 235 238 254 252 254 246 255 262 272 279
153 146 159 164 170 151 149 199 178 218 249 262 294 292 294 280 297 288 319 297 317 300 317 301 298 294 292 291 285 277 263 242 229 244 254 257 246 245 239 243 260 274 272
148 144 143 157 174 117 72 222 317 319 300 293 308 295 297 313 324 315 303 295 295 311 302 307 293 294 291 286 282 269 257 240 249 235 246 251 259 241 241 246 253 269 281
149 140 154 119 88 25 45 11 303 289 317 308 318 328 323 315 312 312 307 313 306 301 292 291 293 295 290 287 283 272 252 247 248 232 243 250 255 240 243 248 253 261 282
168 147 105 67 34 354 328 264 299 312 340 348 342 329 337 326 325 320 321 314 306 294 289 291 297 293 295 302 290 267 245 240 231 239 242 244 242 248 256 254 252 252 246
74 72 86 85 44 352 281 324 8 6 9 354 339 332 330 324 325 323 313 310 303 296 290 294 296 293 285 277 268 268 247 230 233 229 230 243 239 246 249 248 254 261 236
86 81 45 28 201 280 29 34 14 6 349 337 333 328 326 324 319 315 312 305 301 291 286 296 297 299 290 296 269 264 251 241 230 224 221 229 243 243 253 258 279 277 260
112 118 191 186 67 54 26 2 357 349 348 335 330 330 332 327 321 315 311 312 308 306 302 307 302 297 288 289 285 286 257 245 229 211 222 240 239 244 261 282 308 301 271
45 114 29 34 25 30 359 358 347 347 343 336 337 339 330 324 326 325 316 319 315 318 310 304 299 296 287 313 290 294 264 238 222 210 237 234 278 67 54 311 324 298 269
19 42 34 5 5 2 349 348 346 346 342 342 342 333 329 338 326 319 317 315 319 314 309 298 302 300 287 269 298 289 294 251 234 214 233 199 147 120 99 47 358 313 276
15 9 356 3 351 352 345 347 340 341 341 340 335 335 335 316 322 319 317 318 317 310 305 295 310 301 317 240 276 279 262 265 215 220 218 220 119 126 126 60 354 305 223
338 353 353 346 342 342 348 341 343 338 337 325 328 328 332 330 331 320 328 317 314 308 308 304 314 310 5 307 284 259 245 231 227 195 184 154 134 97 62 14 320 331 112
342 339 344 340 326 332 343 333 331 332 327 324 333 329 321 332 325 339 319 321 319 312 316 309 311 350 357 359 302 234 206 220 200 159 134 135 120 112 63 335 322 17 93
320 325 333 327 311 314 321 314 316 322 326 328 336 327 317 331 325 337 324 326 326 319 320 313 353 28 2 343 321 239 209 183 168 157 143 55 130 128 179 259 292 101 116
311 318 305 304 302 293 300 306 314 319 325 338 332 315 333 325 337 329 335 330 328 328 341 349 13 9 8 336 327 243 245 175 209 172 151 142 129 157 178 268 293 4 94
303 289 297 292 298 295 297 302 314 325 322 327 329 316 337 337 348 345 327 347 347 348 337 10 10 11 4 344 326 276 236 299 244 159 100 108 131 142 178 218 52 343 9
329 304 292 297 293 297 295 302 309 319 321 319 330 329 332 352 336 334 338 328 5 349 355 358 7 354 351 327 15 92 337 286 299 60 82 105 119 130 145 138 212 233 181
317 313 298 292 294 300 303 303 313 317 313 317 328 336 322 339 341 318 342 343 353 9 350 331 4 350 341 358 347 153 168 200 186 117 126 116 111 60 115 174 217 234 138
301 290 291 295 298 298 296 304 312 314 309 321 322 306 322 337 310 335 346 336 21 4 333 354 1 338 333 4 319 309 216 280 109 155 152 174 182 177 175 189 171 167 186
296 291 285 287 292 297 296 300 300 303 298 307 320 346 312 323 315 327 326 139 157 297 223 267 252 319 286 319 307 294 296 289 309 211 187 199 197 198 204 184 177 195 218